Location: Oulou
(10.7667°N, 12.5167°W)
Time: 06:08:33
(UTC+00:00)

Cosmos 2297 Rocket - Pass Details

Date: 20 September 2019
Orbit: 841 x 842 km, 71.0° (Epoch: 15 October)

Event Time Altitude Azimuth Distance (km) Brightness Sun altitude
Rises 20:14:12 0° 214° (SW) 3,387 5.7 -22.1°
Reaches altitude 10° 20:16:49 10° 222° (SW) 2,453 5.1 -22.7°
Maximum altitude 20:21:55 35° 287° (WNW) 1,318 3.7 -23.9°
Drops below altitude 10° 20:27:02 10° 353° (N) 2,452 4.7 -25.2°
Sets 20:29:40 0° 2° (N) 3,386 5.4 -25.8°
